This is the latest recevied weather packets stored in our database for station/object NO4D. If no packets are shown the sender has not sent any weather packets the latest 10 day(s).
| Time | Temp. | Humidity | Pressure | Rain* | Wind** | Luminosity | Snow |
|---|---|---|---|---|---|---|---|
| 1777997021 | 23.89° C | 51% | 1016.9 hPa | 0 mm | - | 655 W/m² | - |
| 1777996717 | 23.89° C | 51% | 1017 hPa | 0 mm | - | 764 W/m² | - |
| 1777996413 | 23.33° C | 53% | 1017.2 hPa | 0 mm | - | 727 W/m² | - |
| 1777996110 | 23.89° C | 52% | 1017.4 hPa | 0 mm | - | 792 W/m² | - |
| 1777995806 | 23.89° C | 53% | 1017.3 hPa | 0 mm | - | 770 W/m² | - |
| 1777995503 | 23.33° C | 52% | 1017.4 hPa | 0 mm | - | 830 W/m² | - |
| 1777995200 | 23.33° C | 53% | 1017.5 hPa | 0 mm | - | 787 W/m² | - |
| 1777994897 | 22.78° C | 52% | 1017.6 hPa | 0 mm | - | 752 W/m² | - |
| 1777994594 | 22.78° C | 54% | 1017.5 hPa | 0 mm | - | 702 W/m² | - |
| 1777994294 | 22.22° C | 53% | 1017.5 hPa | 0 mm | - | 693 W/m² | - |
| 1777993991 | 22.22° C | 55% | 1017.6 hPa | 0 mm | - | 642 W/m² | - |
| 1777993688 | 22.22° C | 56% | 1017.7 hPa | 0 mm | - | 636 W/m² | - |
| 1777993385 | 22.22° C | 57% | 1017.8 hPa | 0 mm | - | 631 W/m² | - |
| 1777993079 | 21.67° C | 58% | 1017.6 hPa | 0 mm | - | 601 W/m² | - |
| 1777992778 | 21.67° C | 58% | 1017.5 hPa | 0 mm | - | 579 W/m² | - |
| 1777992475 | 21.11° C | 60% | 1017.3 hPa | 0 mm | - | 679 W/m² | - |
| 1777992173 | 21.67° C | 59% | 1017.3 hPa | 0 mm | - | 663 W/m² | - |
| 1777991870 | 22.22° C | 60% | 1017.3 hPa | 0 mm | - | 681 W/m² | - |
| 1777991568 | 22.22° C | 61% | 1017.5 hPa | 0 mm | - | 675 W/m² | - |
| 1777991264 | 21.11° C | 62% | 1017.3 hPa | 0 mm | - | 704 W/m² | - |
| 1777990962 | 20.56° C | 64% | 1017.5 hPa | 0 mm | - | 623 W/m² | - |
| 1777990659 | 20.56° C | 61% | 1017.3 hPa | 0 mm | - | 638 W/m² | - |
| 1777990357 | 20.56° C | 63% | 1017.3 hPa | 0 mm | - | 590 W/m² | - |
| 1777990052 | 20° C | 64% | 1017 hPa | 0 mm | - | 613 W/m² | - |
| 1777989749 | 20° C | 64% | 1017 hPa | 0 mm | - | 614 W/m² | - |
* Rain latest hour (hover to see other rain measurements)
** Current wind speed in m/s (hover to see current wind gust speed)